Year,Month,Day,Hour,Minute,Value (Times are PST for temperature in C)
2013,01,16,00,00,-6.60
2013,01,16,00,01,-6.60
2013,01,16,00,02,-6.60
2013,01,16,00,03,-6.60
2013,01,16,00,04,-6.50
2013,01,16,00,05,-6.50
2013,01,16,00,06,-6.50
2013,01,16,00,07,-6.50
2013,01,16,00,08,-6.50
2013,01,16,00,09,-6.50
2013,01,16,00,10,-6.50
2013,01,16,00,11,-6.60
2013,01,16,00,12,-6.70
2013,01,16,00,13,-6.80
2013,01,16,00,14,-6.70
2013,01,16,00,15,-6.70
2013,01,16,00,16,-6.70
2013,01,16,00,17,-6.70
2013,01,16,00,18,-6.60
2013,01,16,00,19,-6.70
2013,01,16,00,20,-6.70
2013,01,16,00,21,-6.70
2013,01,16,00,22,-6.80
2013,01,16,00,23,-6.90
2013,01,16,00,24,-7.00
2013,01,16,00,25,-7.10
2013,01,16,00,26,-7.10
2013,01,16,00,27,-7.20
2013,01,16,00,28,-7.20
2013,01,16,00,29,-7.10
2013,01,16,00,30,-7.20
2013,01,16,00,31,-7.20
2013,01,16,00,32,-7.30
2013,01,16,00,33,-7.40
2013,01,16,00,34,-7.50
2013,01,16,00,35,-7.60
2013,01,16,00,36,-7.60
2013,01,16,00,37,-7.60
2013,01,16,00,38,-7.60
2013,01,16,00,39,-7.60
2013,01,16,00,40,-7.60
2013,01,16,00,41,-7.60
2013,01,16,00,42,-7.60
2013,01,16,00,43,-7.60
2013,01,16,00,44,-7.70
2013,01,16,00,45,-7.70
2013,01,16,00,46,-7.70
2013,01,16,00,47,-7.70
2013,01,16,00,48,-7.70
2013,01,16,00,49,-7.70
2013,01,16,00,50,-7.70
2013,01,16,00,51,-7.70
2013,01,16,00,52,-7.60
2013,01,16,00,53,-7.40
2013,01,16,00,54,-7.30
2013,01,16,00,55,-7.20
2013,01,16,00,56,-7.20
2013,01,16,00,57,-7.20
2013,01,16,00,58,-7.20
2013,01,16,00,59,-7.20
2013,01,16,01,00,-7.30
2013,01,16,01,01,-7.30
2013,01,16,01,02,-7.40
2013,01,16,01,03,-7.40
2013,01,16,01,04,-7.50
2013,01,16,01,05,-7.60
2013,01,16,01,06,-7.70
2013,01,16,01,07,-7.90
2013,01,16,01,08,-8.00
2013,01,16,01,09,-8.10
2013,01,16,01,10,-8.20
2013,01,16,01,11,-8.40
2013,01,16,01,12,-8.40
2013,01,16,01,13,-8.50
2013,01,16,01,14,-8.60
2013,01,16,01,15,-8.70
2013,01,16,01,16,-8.80
2013,01,16,01,17,-8.80
2013,01,16,01,18,-8.90
2013,01,16,01,19,-9.00
2013,01,16,01,20,-9.00
2013,01,16,01,21,-9.00
2013,01,16,01,22,-9.00
2013,01,16,01,23,-9.00
2013,01,16,01,24,-9.00
2013,01,16,01,25,-8.90
2013,01,16,01,26,-8.90
2013,01,16,01,27,-8.80
2013,01,16,01,28,-8.80
2013,01,16,01,29,-8.80
2013,01,16,01,30,-8.80
2013,01,16,01,31,-8.80
2013,01,16,01,32,-8.80
2013,01,16,01,33,-8.80
2013,01,16,01,34,-8.80
2013,01,16,01,35,-8.90
2013,01,16,01,36,-8.90
2013,01,16,01,37,-8.90
2013,01,16,01,38,-8.90
2013,01,16,01,39,-9.00
2013,01,16,01,40,-9.00
2013,01,16,01,41,-9.00
2013,01,16,01,42,-9.10
2013,01,16,01,43,-9.10
2013,01,16,01,44,-9.10
2013,01,16,01,45,-9.20
2013,01,16,01,46,-9.20
2013,01,16,01,47,-9.20
2013,01,16,01,48,-9.30
2013,01,16,01,49,-9.40
2013,01,16,01,50,-9.40
2013,01,16,01,51,-9.50
2013,01,16,01,52,-9.60
2013,01,16,01,53,-9.70
2013,01,16,01,54,-9.70
2013,01,16,01,55,-9.70
2013,01,16,01,56,-9.70
2013,01,16,01,57,-9.90
2013,01,16,01,58,-9.90
2013,01,16,01,59,-9.90
2013,01,16,02,00,-10.00
2013,01,16,02,01,-10.10
2013,01,16,02,02,-10.20
2013,01,16,02,03,-10.20
2013,01,16,02,04,-10.20
2013,01,16,02,05,-10.30
2013,01,16,02,06,-10.30
2013,01,16,02,07,-10.30
2013,01,16,02,08,-10.40
2013,01,16,02,09,-10.40
2013,01,16,02,10,-10.50
2013,01,16,02,11,-10.60
2013,01,16,02,12,-10.60
2013,01,16,02,13,-10.60
2013,01,16,02,14,-10.70
2013,01,16,02,15,-10.70
2013,01,16,02,16,-10.80
2013,01,16,02,17,-10.80
2013,01,16,02,18,-10.80
2013,01,16,02,19,-10.80
2013,01,16,02,20,-10.80
2013,01,16,02,21,-10.80
2013,01,16,02,22,-10.90
2013,01,16,02,23,-10.90
2013,01,16,02,24,-10.90
2013,01,16,02,25,-11.10
2013,01,16,02,26,-11.10
2013,01,16,02,27,-11.20
2013,01,16,02,28,-11.20
2013,01,16,02,29,-11.30
2013,01,16,02,30,-11.40
2013,01,16,02,31,-11.50
2013,01,16,02,32,-11.50
2013,01,16,02,33,-11.50
2013,01,16,02,34,-11.60
2013,01,16,02,35,-11.60
2013,01,16,02,36,-11.60
2013,01,16,02,37,-11.70
2013,01,16,02,38,-11.70
2013,01,16,02,39,-11.80
2013,01,16,02,40,-11.80
2013,01,16,02,41,-11.90
2013,01,16,02,42,-12.00
2013,01,16,02,43,-12.00
2013,01,16,02,44,-12.00
2013,01,16,02,45,-12.00
2013,01,16,02,46,-12.10
2013,01,16,02,47,-12.10
2013,01,16,02,48,-12.20
2013,01,16,02,49,-12.20
2013,01,16,02,50,-12.20
2013,01,16,02,51,-12.20
2013,01,16,02,52,-12.30
2013,01,16,02,53,-12.40
2013,01,16,02,54,-12.40
2013,01,16,02,55,-12.50
2013,01,16,02,56,-12.40
2013,01,16,02,57,-12.40
2013,01,16,02,58,-12.30
2013,01,16,02,59,-12.20
2013,01,16,03,00,-12.20
2013,01,16,03,01,-12.20
2013,01,16,03,02,-12.20
2013,01,16,03,03,-12.20
2013,01,16,03,04,-12.20
2013,01,16,03,05,-12.20
2013,01,16,03,06,-12.20
2013,01,16,03,07,-12.20
2013,01,16,03,08,-12.20
2013,01,16,03,09,-12.20
2013,01,16,03,10,-12.20
2013,01,16,03,11,-12.20
2013,01,16,03,12,-12.30
2013,01,16,03,13,-12.30
2013,01,16,03,14,-12.40
2013,01,16,03,15,-12.40
2013,01,16,03,16,-12.40
2013,01,16,03,17,-12.50
2013,01,16,03,18,-12.50
2013,01,16,03,19,-12.50
2013,01,16,03,20,-12.50
2013,01,16,03,21,-12.50
2013,01,16,03,22,-12.60
2013,01,16,03,23,-12.60
2013,01,16,03,24,-12.60
2013,01,16,03,25,-12.60
2013,01,16,03,26,-12.70
2013,01,16,03,27,-12.70
2013,01,16,03,28,-12.70
2013,01,16,03,29,-12.70
2013,01,16,03,30,-12.70
2013,01,16,03,31,-12.60
2013,01,16,03,32,-12.60
2013,01,16,03,33,-12.60
2013,01,16,03,34,-12.60
2013,01,16,03,35,-12.60
2013,01,16,03,36,-12.60
2013,01,16,03,37,-12.60
2013,01,16,03,38,-12.50
2013,01,16,03,39,-12.60
2013,01,16,03,40,-12.60
2013,01,16,03,41,-12.60
2013,01,16,03,42,-12.60
2013,01,16,03,43,-12.70
2013,01,16,03,44,-12.70
2013,01,16,03,45,-12.80
2013,01,16,03,46,-12.80
2013,01,16,03,47,-12.90
2013,01,16,03,48,-13.00
2013,01,16,03,49,-13.00
2013,01,16,03,50,-13.10
2013,01,16,03,51,-13.10
2013,01,16,03,52,-13.20
2013,01,16,03,53,-13.30
2013,01,16,03,54,-13.30
2013,01,16,03,55,-13.40
2013,01,16,03,56,-13.40
2013,01,16,03,57,-13.50
2013,01,16,03,58,-13.50
2013,01,16,03,59,-13.50
2013,01,16,04,00,-13.60
2013,01,16,04,01,-13.60
2013,01,16,04,02,-13.50
2013,01,16,04,03,-13.50
2013,01,16,04,04,-13.30
2013,01,16,04,05,-13.20
2013,01,16,04,06,-13.00
2013,01,16,04,07,-12.80
2013,01,16,04,08,-12.70
2013,01,16,04,09,-12.70
2013,01,16,04,10,-12.60
2013,01,16,04,11,-12.60
2013,01,16,04,12,-12.60
2013,01,16,04,13,-12.50
2013,01,16,04,14,-12.50
2013,01,16,04,15,-12.40
2013,01,16,04,16,-12.40
2013,01,16,04,17,-12.30
2013,01,16,04,18,-12.30
2013,01,16,04,19,-12.20
2013,01,16,04,20,-12.20
2013,01,16,04,21,-12.20
2013,01,16,04,22,-12.20
2013,01,16,04,23,-12.20
2013,01,16,04,24,-12.10
2013,01,16,04,25,-12.10
2013,01,16,04,26,-12.00
2013,01,16,04,27,-12.00
2013,01,16,04,28,-11.80
2013,01,16,04,29,-11.70
2013,01,16,04,30,-11.70
2013,01,16,04,31,-11.60
2013,01,16,04,32,-11.60
2013,01,16,04,33,-11.60
2013,01,16,04,34,-11.60
2013,01,16,04,35,-11.60
2013,01,16,04,36,-11.70
2013,01,16,04,37,-11.80
2013,01,16,04,38,-11.80
2013,01,16,04,39,-11.80
2013,01,16,04,40,-11.80
2013,01,16,04,41,-11.70
2013,01,16,04,42,-11.70
2013,01,16,04,43,-11.70
2013,01,16,04,44,-11.70
2013,01,16,04,45,-11.70
2013,01,16,04,46,-11.80
2013,01,16,04,47,-11.80
2013,01,16,04,48,-11.90
2013,01,16,04,49,-11.90
2013,01,16,04,50,-11.90
2013,01,16,04,51,-11.90
2013,01,16,04,52,-11.90
2013,01,16,04,53,-11.90
2013,01,16,04,54,-11.90
2013,01,16,04,55,-11.90
2013,01,16,04,56,-11.80
2013,01,16,04,57,-11.80
2013,01,16,04,58,-11.80
2013,01,16,04,59,-11.90
2013,01,16,05,00,-11.90
2013,01,16,05,01,-11.90
2013,01,16,05,02,-11.90
2013,01,16,05,03,-11.80
2013,01,16,05,04,-11.80
2013,01,16,05,05,-11.70
2013,01,16,05,06,-11.60
2013,01,16,05,07,-11.60
2013,01,16,05,08,-11.50
2013,01,16,05,09,-11.50
2013,01,16,05,10,-11.50
2013,01,16,05,11,-11.40
2013,01,16,05,12,-11.50
2013,01,16,05,13,-11.50
2013,01,16,05,14,-11.50
2013,01,16,05,15,-11.50
2013,01,16,05,16,-11.60
2013,01,16,05,17,-11.70
2013,01,16,05,18,-11.70
2013,01,16,05,19,-11.70
2013,01,16,05,20,-11.80
2013,01,16,05,21,-11.80
2013,01,16,05,22,-11.90
2013,01,16,05,23,-11.90
2013,01,16,05,24,-12.00
2013,01,16,05,25,-12.00
2013,01,16,05,26,-12.00
2013,01,16,05,27,-12.00
2013,01,16,05,28,-12.00
2013,01,16,05,29,-12.00
2013,01,16,05,30,-12.00
2013,01,16,05,31,-12.10
2013,01,16,05,32,-12.10
2013,01,16,05,33,-12.20
2013,01,16,05,34,-12.20
2013,01,16,05,35,-12.30
2013,01,16,05,36,-12.30
2013,01,16,05,37,-12.40
2013,01,16,05,38,-12.40
2013,01,16,05,39,-12.50
2013,01,16,05,40,-12.50
2013,01,16,05,41,-12.60
2013,01,16,05,42,-12.60
2013,01,16,05,43,-12.70
2013,01,16,05,44,-12.70
2013,01,16,05,45,-12.70
2013,01,16,05,46,-12.80
2013,01,16,05,47,-12.90
2013,01,16,05,48,-13.00
2013,01,16,05,49,-13.10
2013,01,16,05,50,-13.10
2013,01,16,05,51,-13.20
2013,01,16,05,52,-13.30
2013,01,16,05,53,-13.30
2013,01,16,05,54,-13.30
2013,01,16,05,55,-13.30
2013,01,16,05,56,-13.30
2013,01,16,05,57,-13.30
2013,01,16,05,58,-13.30
2013,01,16,05,59,-13.10
2013,01,16,06,00,-13.00
2013,01,16,06,01,-12.80
2013,01,16,06,02,-12.80
2013,01,16,06,03,-12.70
2013,01,16,06,04,-12.70
2013,01,16,06,05,-12.60
2013,01,16,06,06,-12.50
2013,01,16,06,07,-12.30
2013,01,16,06,08,-12.20
2013,01,16,06,09,-12.10
2013,01,16,06,10,-12.00
2013,01,16,06,11,-11.80
2013,01,16,06,12,-11.70
2013,01,16,06,13,-11.70
2013,01,16,06,14,-11.70
2013,01,16,06,15,-11.70
2013,01,16,06,16,-11.60
2013,01,16,06,17,-11.60
2013,01,16,06,18,-11.60
2013,01,16,06,19,-11.60
2013,01,16,06,20,-11.50
2013,01,16,06,21,-11.50
2013,01,16,06,22,-11.50
2013,01,16,06,23,-11.50
2013,01,16,06,24,-11.50
2013,01,16,06,25,-11.40
2013,01,16,06,26,-11.40
2013,01,16,06,27,-11.40
2013,01,16,06,28,-11.40
2013,01,16,06,29,-11.40
2013,01,16,06,30,-11.40
2013,01,16,06,31,-11.40
2013,01,16,06,32,-11.40
2013,01,16,06,33,-11.40
2013,01,16,06,34,-11.40
2013,01,16,06,35,-11.50
2013,01,16,06,36,-11.50
2013,01,16,06,37,-11.50
2013,01,16,06,38,-11.50
2013,01,16,06,39,-11.40
2013,01,16,06,40,-11.40
2013,01,16,06,41,-11.40
2013,01,16,06,42,-11.30
2013,01,16,06,43,-11.30
2013,01,16,06,44,-11.30
2013,01,16,06,45,-11.20
2013,01,16,06,46,-11.20
2013,01,16,06,47,-11.20
2013,01,16,06,48,-11.30
2013,01,16,06,49,-11.40
2013,01,16,06,50,-11.50
2013,01,16,06,51,-11.70
2013,01,16,06,52,-11.90
2013,01,16,06,53,-12.20
2013,01,16,06,54,-12.40
2013,01,16,06,55,-12.70
2013,01,16,06,56,-12.90
2013,01,16,06,57,-13.00
2013,01,16,06,58,-13.10
2013,01,16,06,59,-13.10
2013,01,16,07,00,-13.10
2013,01,16,07,01,-13.20
2013,01,16,07,02,-13.20
2013,01,16,07,03,-13.20
2013,01,16,07,04,-13.10
2013,01,16,07,05,-13.10
2013,01,16,07,06,-13.10
2013,01,16,07,07,-13.10
2013,01,16,07,08,-13.10
2013,01,16,07,09,-13.10
2013,01,16,07,10,-13.10
2013,01,16,07,11,-13.00
2013,01,16,07,12,-13.00
2013,01,16,07,13,-13.00
2013,01,16,07,14,-12.90
2013,01,16,07,15,-12.80
2013,01,16,07,16,-12.70
2013,01,16,07,17,-12.60
2013,01,16,07,18,-12.50
2013,01,16,07,19,-12.40
2013,01,16,07,20,-12.30
2013,01,16,07,21,-12.10
2013,01,16,07,22,-12.00
2013,01,16,07,23,-11.90
2013,01,16,07,24,-11.80
2013,01,16,07,25,-11.70
2013,01,16,07,26,-11.60
2013,01,16,07,27,-11.50
2013,01,16,07,28,-11.30
2013,01,16,07,29,-11.30
2013,01,16,07,30,-11.30
2013,01,16,07,31,-11.50
2013,01,16,07,32,-11.70
2013,01,16,07,33,-11.80
2013,01,16,07,34,-12.00
2013,01,16,07,35,-12.10
2013,01,16,07,36,-12.20
2013,01,16,07,37,-12.30
2013,01,16,07,38,-12.40
2013,01,16,07,39,-12.40
2013,01,16,07,40,-12.40
2013,01,16,07,41,-12.30
2013,01,16,07,42,-12.20
2013,01,16,07,43,-12.20
2013,01,16,07,44,-12.10
2013,01,16,07,45,-12.10
2013,01,16,07,46,-12.00
2013,01,16,07,47,-12.00
2013,01,16,07,48,-12.00
2013,01,16,07,49,-11.90
2013,01,16,07,50,-11.90
2013,01,16,07,51,-11.90
2013,01,16,07,52,-11.90
2013,01,16,07,53,-11.80
2013,01,16,07,54,-11.80
2013,01,16,07,55,-11.70
2013,01,16,07,56,-11.70
2013,01,16,07,57,-11.60
2013,01,16,07,58,-11.60
2013,01,16,07,59,-11.50
2013,01,16,08,00,-11.50
2013,01,16,08,01,-11.50
2013,01,16,08,02,-11.50
2013,01,16,08,03,-11.50
2013,01,16,08,04,-11.50
2013,01,16,08,05,-11.50
2013,01,16,08,06,-11.50
2013,01,16,08,07,-11.40
2013,01,16,08,08,-11.20
2013,01,16,08,09,-11.10
2013,01,16,08,10,-11.00
2013,01,16,08,11,-10.90
2013,01,16,08,12,-10.90
2013,01,16,08,13,-10.80
2013,01,16,08,14,-10.80
2013,01,16,08,15,-10.80
2013,01,16,08,16,-10.70
2013,01,16,08,17,-10.70
2013,01,16,08,18,-10.70
2013,01,16,08,19,-10.60
2013,01,16,08,20,-10.60
2013,01,16,08,21,-10.60
2013,01,16,08,22,-10.50
2013,01,16,08,23,-10.50
2013,01,16,08,24,-10.50
2013,01,16,08,25,-10.60
2013,01,16,08,26,-10.60
2013,01,16,08,27,-10.60
2013,01,16,08,28,-10.60
2013,01,16,08,29,-10.70
2013,01,16,08,30,-10.70
2013,01,16,08,31,-10.70
2013,01,16,08,32,-10.70
2013,01,16,08,33,-10.70
2013,01,16,08,34,-10.70
2013,01,16,08,35,-10.70
2013,01,16,08,36,-10.70
2013,01,16,08,37,-10.60
2013,01,16,08,38,-10.60
2013,01,16,08,39,-10.60
2013,01,16,08,40,-10.60
2013,01,16,08,41,-10.60
2013,01,16,08,42,-10.50
2013,01,16,08,43,-10.40
2013,01,16,08,44,-10.30
2013,01,16,08,45,-10.30
2013,01,16,08,46,-10.30
2013,01,16,08,47,-10.40
2013,01,16,08,48,-10.50
2013,01,16,08,49,-10.70
2013,01,16,08,50,-10.80
2013,01,16,08,51,-10.90
2013,01,16,08,52,-10.90
2013,01,16,08,53,-11.00
2013,01,16,08,54,-11.10
2013,01,16,08,55,-11.10
2013,01,16,08,56,-11.10
2013,01,16,08,57,-11.10
2013,01,16,08,58,-11.10
2013,01,16,08,59,-11.20
2013,01,16,09,00,-11.20
2013,01,16,09,01,-11.20
2013,01,16,09,02,-11.30
2013,01,16,09,03,-11.30
2013,01,16,09,04,-11.30
2013,01,16,09,05,-11.30
2013,01,16,09,06,-11.30
2013,01,16,09,07,-11.30
2013,01,16,09,08,-11.30
2013,01,16,09,09,-11.30
2013,01,16,09,10,-11.30
2013,01,16,09,11,-11.30
2013,01,16,09,12,-11.30
2013,01,16,09,13,-11.30
2013,01,16,09,14,-11.30
2013,01,16,09,15,-11.30
2013,01,16,09,16,-11.30
2013,01,16,09,17,-11.20
2013,01,16,09,18,-11.20
2013,01,16,09,19,-11.10
2013,01,16,09,20,-11.10
2013,01,16,09,21,-11.10
2013,01,16,09,22,-11.00
2013,01,16,09,23,-11.00
2013,01,16,09,24,-11.10
2013,01,16,09,25,-11.10
2013,01,16,09,26,-11.20
2013,01,16,09,27,-11.20
2013,01,16,09,28,-11.20
2013,01,16,09,29,-11.20
2013,01,16,09,30,-11.30
2013,01,16,09,31,-11.30
2013,01,16,09,32,-11.30
2013,01,16,09,33,-11.30
2013,01,16,09,34,-11.30
2013,01,16,09,35,-11.40
2013,01,16,09,36,-11.40
2013,01,16,09,37,-11.40
2013,01,16,09,38,-11.50
2013,01,16,09,39,-11.50
2013,01,16,09,40,-11.50
2013,01,16,09,41,-11.50
2013,01,16,09,42,-11.50
2013,01,16,09,43,-11.40
2013,01,16,09,44,-11.40
2013,01,16,09,45,-11.40
2013,01,16,09,46,-11.40
2013,01,16,09,47,-11.50
2013,01,16,09,48,-11.50
2013,01,16,09,49,-11.50
2013,01,16,09,50,-11.50
2013,01,16,09,51,-11.50
2013,01,16,09,52,-11.50
2013,01,16,09,53,-11.50
2013,01,16,09,54,-11.60
2013,01,16,09,55,-11.60
2013,01,16,09,56,-11.60
2013,01,16,09,57,-11.60
2013,01,16,09,58,-11.60
2013,01,16,09,59,-11.60
2013,01,16,10,00,-11.60
2013,01,16,10,01,-11.60
2013,01,16,10,02,-11.60
2013,01,16,10,03,-11.60
2013,01,16,10,04,-11.60
2013,01,16,10,05,-11.60
2013,01,16,10,06,-11.60
2013,01,16,10,07,-11.60
2013,01,16,10,08,-11.60
2013,01,16,10,09,-11.60
2013,01,16,10,10,-11.60
2013,01,16,10,11,-11.70
2013,01,16,10,12,-11.70
2013,01,16,10,13,-11.70
2013,01,16,10,14,-11.80
2013,01,16,10,15,-11.80
2013,01,16,10,16,-11.70
2013,01,16,10,17,-11.80
2013,01,16,10,18,-11.80
2013,01,16,10,19,-11.90
2013,01,16,10,20,-12.00
2013,01,16,10,21,-12.10
2013,01,16,10,22,-12.20
2013,01,16,10,23,-12.20
2013,01,16,10,24,-12.30
2013,01,16,10,25,-12.40
2013,01,16,10,26,-12.40
2013,01,16,10,27,-12.50
2013,01,16,10,28,-12.50
2013,01,16,10,29,-12.60
2013,01,16,10,30,-12.60
2013,01,16,10,31,-12.60
2013,01,16,10,32,-12.60
2013,01,16,10,33,-12.60
2013,01,16,10,34,-12.60
2013,01,16,10,35,-12.60
2013,01,16,10,36,-12.60
2013,01,16,10,37,-12.60
2013,01,16,10,38,-12.60
2013,01,16,10,39,-12.60
2013,01,16,10,40,-12.60
2013,01,16,10,41,-12.70
2013,01,16,10,42,-12.70
2013,01,16,10,43,-12.80
2013,01,16,10,44,-12.80
2013,01,16,10,45,-12.90
2013,01,16,10,46,-12.90
2013,01,16,10,47,-12.90
2013,01,16,10,48,-12.90
2013,01,16,10,49,-13.00
2013,01,16,10,50,-13.00
2013,01,16,10,51,-13.00
2013,01,16,10,52,-13.00
2013,01,16,10,53,-13.00
2013,01,16,10,54,-13.00
2013,01,16,10,55,-13.00
2013,01,16,10,56,-13.00
2013,01,16,10,57,-13.00
2013,01,16,10,58,-12.90
2013,01,16,10,59,-12.90
2013,01,16,11,00,-12.80
2013,01,16,11,01,-12.80
2013,01,16,11,02,-12.70
2013,01,16,11,03,-12.60
2013,01,16,11,04,-12.40
2013,01,16,11,05,-12.30
2013,01,16,11,06,-12.20
2013,01,16,11,07,-12.20
2013,01,16,11,08,-12.20
2013,01,16,11,09,-12.20
2013,01,16,11,10,-12.20
2013,01,16,11,11,-12.20
2013,01,16,11,12,-12.20
2013,01,16,11,13,-12.20
2013,01,16,11,14,-12.20
2013,01,16,11,15,-12.20
2013,01,16,11,16,-12.10
2013,01,16,11,17,-12.00
2013,01,16,11,18,-12.00
2013,01,16,11,19,-12.00
2013,01,16,11,20,-12.00
2013,01,16,11,21,-12.00
2013,01,16,11,22,-12.10
2013,01,16,11,23,-12.20
2013,01,16,11,24,-12.30
2013,01,16,11,25,-12.30
2013,01,16,11,26,-12.40
2013,01,16,11,27,-12.40
2013,01,16,11,28,-12.40
2013,01,16,11,29,-12.40
2013,01,16,11,30,-12.40
2013,01,16,11,31,-12.50
2013,01,16,11,32,-12.50
2013,01,16,11,33,-12.50
2013,01,16,11,34,-12.60
2013,01,16,11,35,-12.60
2013,01,16,11,36,-12.60
2013,01,16,11,37,-12.70
2013,01,16,11,38,-12.70
2013,01,16,11,39,-12.80
2013,01,16,11,40,-12.90
2013,01,16,11,41,-12.90
2013,01,16,11,42,-13.00
2013,01,16,11,43,-13.00
2013,01,16,11,44,-13.00
2013,01,16,11,45,-13.10
2013,01,16,11,46,-13.10
2013,01,16,11,47,-13.20
2013,01,16,11,48,-13.30
2013,01,16,11,49,-13.30
2013,01,16,11,50,-13.30
2013,01,16,11,51,-13.40
2013,01,16,11,52,-13.50
2013,01,16,11,53,-13.50
2013,01,16,11,54,-13.50
2013,01,16,11,55,-13.50
2013,01,16,11,56,-13.50
2013,01,16,11,57,-13.50
2013,01,16,11,58,-13.60
2013,01,16,11,59,-13.60
2013,01,16,12,00,-13.60
2013,01,16,12,01,-13.50
2013,01,16,12,02,-13.50
2013,01,16,12,03,-13.50
2013,01,16,12,04,-13.50
2013,01,16,12,05,-13.60
2013,01,16,12,06,-13.60
2013,01,16,12,07,-13.60
2013,01,16,12,08,-13.60
2013,01,16,12,09,-13.70
2013,01,16,12,10,-13.70
2013,01,16,12,11,-13.70
2013,01,16,12,12,-13.70
2013,01,16,12,13,-13.70
2013,01,16,12,14,-13.60
2013,01,16,12,15,-13.60
2013,01,16,12,16,-13.60
2013,01,16,12,17,-13.50
2013,01,16,12,18,-13.50
2013,01,16,12,19,-13.50
2013,01,16,12,20,-13.40
2013,01,16,12,21,-13.30
2013,01,16,12,22,-13.30
2013,01,16,12,23,-13.10
2013,01,16,12,24,-13.10
2013,01,16,12,25,-13.00
2013,01,16,12,26,-13.00
2013,01,16,12,27,-13.00
2013,01,16,12,28,-12.90
2013,01,16,12,29,-12.90
2013,01,16,12,30,-12.90
2013,01,16,12,31,-12.80
2013,01,16,12,32,-12.80
2013,01,16,12,33,-12.80
2013,01,16,12,34,-12.80
2013,01,16,12,35,-12.70
2013,01,16,12,36,-12.70
2013,01,16,12,37,-12.70
2013,01,16,12,38,-12.70
2013,01,16,12,39,-12.70
2013,01,16,12,40,-12.70
2013,01,16,12,41,-12.60
2013,01,16,12,42,-12.60
2013,01,16,12,43,-12.50
2013,01,16,12,44,-12.30
2013,01,16,12,45,-12.20
2013,01,16,12,46,-12.00
2013,01,16,12,47,-11.90
2013,01,16,12,48,-11.80
2013,01,16,12,49,-11.70
2013,01,16,12,50,-11.60
2013,01,16,12,51,-11.50
2013,01,16,12,52,-11.40
2013,01,16,12,53,-11.30
2013,01,16,12,54,-11.30
2013,01,16,12,55,-11.20
2013,01,16,12,56,-11.20
2013,01,16,12,57,-11.20
2013,01,16,12,58,-11.10
2013,01,16,12,59,-11.10
2013,01,16,13,00,-11.10
2013,01,16,13,01,-11.00
2013,01,16,13,02,-10.90
2013,01,16,13,03,-10.90
2013,01,16,13,04,-10.80
2013,01,16,13,05,-10.80
2013,01,16,13,06,-10.60
2013,01,16,13,07,-10.60
2013,01,16,13,08,-10.40
2013,01,16,13,09,-10.40
2013,01,16,13,10,-10.30
2013,01,16,13,11,-10.30
2013,01,16,13,12,-10.30
2013,01,16,13,13,-10.20
2013,01,16,13,14,-10.30
2013,01,16,13,15,-10.30
2013,01,16,13,16,-10.40
2013,01,16,13,17,-10.50
2013,01,16,13,18,-10.60
2013,01,16,13,19,-10.70
2013,01,16,13,20,-10.80
2013,01,16,13,21,-10.90
2013,01,16,13,22,-10.90
2013,01,16,13,23,-11.00
2013,01,16,13,24,-11.10
2013,01,16,13,25,-11.20
2013,01,16,13,26,-11.20
2013,01,16,13,27,-11.30
2013,01,16,13,28,-11.30
2013,01,16,13,29,-11.30
2013,01,16,13,30,-11.40
2013,01,16,13,31,-11.40
2013,01,16,13,32,-11.40
2013,01,16,13,33,-11.40
2013,01,16,13,34,-11.50
2013,01,16,13,35,-11.40
2013,01,16,13,36,-11.40
2013,01,16,13,37,-11.40
2013,01,16,13,38,-11.30
2013,01,16,13,39,-11.30
2013,01,16,13,40,-11.30
2013,01,16,13,41,-11.20
2013,01,16,13,42,-11.10
2013,01,16,13,43,-11.00
2013,01,16,13,44,-10.90
2013,01,16,13,45,-10.80
2013,01,16,13,46,-10.70
2013,01,16,13,47,-10.60
2013,01,16,13,48,-10.50
2013,01,16,13,49,-10.30
2013,01,16,13,50,-10.10
2013,01,16,13,51,-10.00
2013,01,16,13,52,-10.00
2013,01,16,13,53,-9.90
2013,01,16,13,54,-9.90
2013,01,16,13,55,-10.00
2013,01,16,13,56,-10.00
2013,01,16,13,57,-10.20
2013,01,16,13,58,-10.30
2013,01,16,13,59,-10.40
2013,01,16,14,00,-10.50
2013,01,16,14,01,-10.60
2013,01,16,14,02,-10.60
2013,01,16,14,03,-10.70
2013,01,16,14,04,-10.70
2013,01,16,14,05,-10.70
2013,01,16,14,06,-10.80
2013,01,16,14,07,-10.80
2013,01,16,14,08,-10.80
2013,01,16,14,09,-10.70
2013,01,16,14,10,-10.70
2013,01,16,14,11,-10.70
2013,01,16,14,12,-10.70
2013,01,16,14,13,-10.70
2013,01,16,14,14,-10.70
2013,01,16,14,15,-10.70
2013,01,16,14,16,-10.70
2013,01,16,14,17,-10.70
2013,01,16,14,18,-10.70
2013,01,16,14,19,-10.70
2013,01,16,14,20,-10.60
2013,01,16,14,21,-10.60
2013,01,16,14,22,-10.60
2013,01,16,14,23,-10.60
2013,01,16,14,24,-10.60
2013,01,16,14,25,-10.50
2013,01,16,14,26,-10.50
2013,01,16,14,27,-10.40
2013,01,16,14,28,-10.40
2013,01,16,14,29,-10.40
2013,01,16,14,30,-10.30
2013,01,16,14,31,-10.30
2013,01,16,14,32,-10.30
2013,01,16,14,33,-10.20
2013,01,16,14,34,-10.20
2013,01,16,14,35,-10.20
2013,01,16,14,36,-10.20
2013,01,16,14,37,-10.20
2013,01,16,14,38,-10.20
2013,01,16,14,39,-10.20
2013,01,16,14,40,-10.20
2013,01,16,14,41,-10.20
2013,01,16,14,42,-10.20
2013,01,16,14,43,-10.20
2013,01,16,14,44,-10.20
2013,01,16,14,45,-10.30
2013,01,16,14,46,-10.30
2013,01,16,14,47,-10.30
2013,01,16,14,48,-10.30
2013,01,16,14,49,-10.30
2013,01,16,14,50,-10.30
2013,01,16,14,51,-10.40
2013,01,16,14,52,-10.40
2013,01,16,14,53,-10.60
2013,01,16,14,54,-10.70
2013,01,16,14,55,-10.90
2013,01,16,14,56,-11.00
2013,01,16,14,57,-11.20
2013,01,16,14,58,-11.40
2013,01,16,14,59,-11.50
2013,01,16,15,00,-11.50
2013,01,16,15,01,-11.60
2013,01,16,15,02,-11.60
2013,01,16,15,03,-11.60
2013,01,16,15,04,-11.60
2013,01,16,15,05,-11.60
2013,01,16,15,06,-11.50
2013,01,16,15,07,-11.50
2013,01,16,15,08,-11.50
2013,01,16,15,09,-11.50
2013,01,16,15,10,-11.50
2013,01,16,15,11,-11.50
2013,01,16,15,12,-11.50
2013,01,16,15,13,-11.40
2013,01,16,15,14,-11.40
2013,01,16,15,15,-11.40
2013,01,16,15,16,-11.30
2013,01,16,15,17,-11.30
2013,01,16,15,18,-11.20
2013,01,16,15,19,-11.20
2013,01,16,15,20,-11.10
2013,01,16,15,21,-11.10
2013,01,16,15,22,-11.00
2013,01,16,15,23,-10.90
2013,01,16,15,24,-10.90
2013,01,16,15,25,-10.90
2013,01,16,15,26,-10.80
2013,01,16,15,27,-10.80
2013,01,16,15,28,-10.80
2013,01,16,15,29,-10.90
2013,01,16,15,30,-10.90
2013,01,16,15,31,-10.90
2013,01,16,15,32,-11.00
2013,01,16,15,33,-11.10
2013,01,16,15,34,-11.10
2013,01,16,15,35,-11.10
2013,01,16,15,36,-11.20
2013,01,16,15,37,-11.20
2013,01,16,15,38,-11.20
2013,01,16,15,39,-11.20
2013,01,16,15,40,-11.20
2013,01,16,15,41,-11.30
2013,01,16,15,42,-11.30
2013,01,16,15,43,-11.30
2013,01,16,15,44,-11.30
2013,01,16,15,45,-11.30
2013,01,16,15,46,-11.30
2013,01,16,15,47,-11.30
2013,01,16,15,48,-11.30
2013,01,16,15,49,-11.30
2013,01,16,15,50,-11.30
2013,01,16,15,51,-11.30
2013,01,16,15,52,-11.30
2013,01,16,15,53,-11.20
2013,01,16,15,54,-11.20
2013,01,16,15,55,-11.20
2013,01,16,15,56,-11.20
2013,01,16,15,57,-11.20
2013,01,16,15,58,-11.20
2013,01,16,15,59,-11.20
2013,01,16,16,00,-11.20
2013,01,16,16,01,-11.20
2013,01,16,16,02,-11.20
2013,01,16,16,03,-11.20
2013,01,16,16,04,-11.20
2013,01,16,16,05,-11.20
2013,01,16,16,06,-11.20
2013,01,16,16,07,-11.20
2013,01,16,16,08,-11.20
2013,01,16,16,09,-11.30
2013,01,16,16,10,-11.30
2013,01,16,16,11,-11.30
2013,01,16,16,12,-11.40
2013,01,16,16,13,-11.40
2013,01,16,16,14,-11.40
2013,01,16,16,15,-11.40
2013,01,16,16,16,-11.40
2013,01,16,16,17,-11.40
2013,01,16,16,18,-11.50
2013,01,16,16,19,-11.40
2013,01,16,16,20,-11.30
2013,01,16,16,21,-11.20
2013,01,16,16,22,-11.20
2013,01,16,16,23,-11.10
2013,01,16,16,24,-11.10
2013,01,16,16,25,-11.00
2013,01,16,16,26,-11.00
2013,01,16,16,27,-11.00
2013,01,16,16,28,-10.90
2013,01,16,16,29,-10.90
2013,01,16,16,30,-10.90
2013,01,16,16,31,-10.90
2013,01,16,16,32,-10.90
2013,01,16,16,33,-10.80
2013,01,16,16,34,-10.80
2013,01,16,16,35,-10.70
2013,01,16,16,36,-10.70
2013,01,16,16,37,-10.70
2013,01,16,16,38,-10.70
2013,01,16,16,39,-10.70
2013,01,16,16,40,-10.70
2013,01,16,16,41,-10.70